Tracking 25734 objects as of 27-May-2022
HD Live streaming from Space Station
objects crossing your sky now

STARLINK-1446

Track STARLINK-1446 now!
10-day predictions
STARLINK-1446 is classified as:


NORAD ID: 45663
Int'l Code: 2020-035G
Perigee: 553.1 km
Apogee: 555.6 km
Inclination: 53.1 °
Period: 95.6 minutes
Semi major axis: 6925 km
RCS: Unknown
Launch date: June 4, 2020
Source: United States (US)
Launch site: AIR FORCE EASTERN TEST RANGE (AFETR)
aabbcc
Your satellite tracking list
Your tracking list is empty




NASA's NSSDC Master Catalog

Two Line Element Set (TLE):
1 45663U 20035G   22146.46040512  .00002885  00000-0  21250-3 0  9997
2 45663  53.0528 156.1679 0001816  54.6341 305.4817 15.06397043110247
Source of the keplerian elements: AFSPC